Probability
0 0 0 0 0 0 0 0 0 0 0 0 0 0 0 0 0 0 0 0 0 0 0 0 0 0 0 0 0 0 0 0 0 0 0 0 0 0 0 0 0 0 0
0 0 0 0 0 0 0 0 0 0 0 0 0 0 0 0 0 0 0 0 0 0 0 0 0 0 0 0 0 0 0 0 0 0 0 0 0 0 0 0 0 0 0
0 0 0 0 0 0 0 0 0 0 0 0 0 0 0 0 0 0 0 0 0 0 0 0 0 0 0 0 0 0 0 0 0 0 0 0 0 0 0 0 0 0 0
0 0 0 0 0 0 0 0 0 0 0 0 0 0 0 0 0 0 0 0 0 0 0 0 0 0 0 0 0 0 0 0 0 0 0 0 0 0 0 0 0 0 0
0 0 0 0 0 0 0 0 0 0 0 0 0 0 0 0 0 0 0 0 0 0 0 0 0 0 0 0 0 0 0 0 0 0 0 0 0 0 0 0 0 0 0
0 0 0 0 0 0 0 0 0 0 0 0 0 0 0 0 0 0 0 0 0 0 0 0 0 0 0 0 0 0 0 0 0 0 0 0 0 0 0 0 0 0 0
0 0 0 0 0 0 0 0 0 0 0 0 0 0 0 0 0 0 0 0 0 0 0 0 0 0 0 0 0 0 0 0 0 0 0 0 0 0 0 0 0 0 0
0 0 0 0 0 0 0 0 0 0 0 0 0 0 0 0 0 0 0 0 0 0 0 0 0 0 0 0 0 0 0 0 0 0 0 0 0 0 0 0 0 0 0
0 0 0 0 0 0 0 0 0 0 0 0 0 0 0 0 0 0 0 0 0 0 0 0 0 0 0 0 0 0 0 0 0 0 0 0 0 0 0 0 0 0 0
0 0 0 0 0 0 0 0 0 0 0 0 0 0 0 0 0 0 0 0 0 0 0 0 0 0 0 0 0 0 0 0 0 0 0 0 0 0 0 0 0 0 0
0 0 0 0 0 0 0 0 0 0 0 0 0 0 0 0 0 0 0 0 0 0 0 0 0 0 0 0 0 0 0 0 0 0 0 0 0 0 0 0 0 0 0
0 0 0 0 0 0 0 0 0 0 0 0 0 0 0 0 0 0 0 0 0 0 0 0 0 0 0 0 0 0 0 0 0 0 0 0 0 0 0 0 0 0 0
0 0 0 0 0 0 0 0 0 0 0 0 0 0 0 0 0 0 0 0 0 0 0 0 0 0 0 0 0 0 0 0 0 0 0 0 0 0 0 0 0 0 0
0 0 0 0 0 0 0 0 0 0 0 0 0 0 0 0 0 0 0 0 0 0 0 0 0 0 0 0 0 0 0 0 0 0 0 0 0 0 0 0 0 0 0
0 0 0 0 0 0 0 0 0 0 0 0 0 0 0 0 0 0 0 0 0 0 0 0 0 0 0 0 0 0 0 0 0 0 0 0 0 0 0 0 0 0 0
0 0 0 0 0 0 0 0 0 0 0 0 0 0 0 0 0 0 0 0 0 0 0 0 0 0 0 0 0 0 0 0 0 0 0 0 0 0 0 0 0 0 0
0 0 0 0 0 0 0 0 0 0 0 0 0 0 0 0 0 0 0 0 0 0 0 0 0 0 0 0 0 0 0 0 0 0 0 0 0 0 0 0 0 0 0
0 0 0 0 0 0 0 0 0 0 0 0 0 0 0 0 0 0 0 0 0 0 0 0 0 0 0 0 0 0 0 0 0 0 0 0 0 0 0 0 0 0 0
0 0 0 0 0 0 0 0 0 0 0 0 0 0 0 0 0 0 0 0 0 0 0 0 0 0 0 0 0 0 0 0 0 0 0 0 0 0 0 0 0 0 0
0 0 0 0 0 0 0 0 0 0 0 0 0 0 0 0 0 0 0 0 0 0 0 0 0 0 0 0 0 0 0 0 0 0 0 0 0 0 0 0 0 0 0
0 0 0 0 0 0 0 0 0 0 0 0 0 0 0 0 0 0 0 0 0 0 0 0 0 0 0 0 0 0 0 0 0 0 0 0 0 0 0 0 0 0 0
0 0 0 0 0 0 0 0 0 0 0 0 0 0 0 0 0 0 0 0 0 0 0 0 0 0 0 0 0 0 0 0 0 0 0 0 0 0 0 0 0 0 0
0 0 0 0 0 0 0 0 0 0 0 0 0 0 0 0 0 0 0 0 0 0 0 0 0 0 0 0 0 0 0 0 0 0 0 0 0 0 0 0 0 0 0
0 0 0 0 0 0 0 0 0 0 0 0 0 0 0 0 0 0 0 0 0 0 0 0 0 0 0 0 0 0 0 0 0 0 0 0 0 0 0 0 0 0 0
0 0 0 0 0 0 0 0 0 0 0 0 0 0 0 0 0 0 0 0 0 0 0 0 0 0 0 0 0 0 0 0 0 0 0 0 0 0 0 0 0 0 0
0 0 0 0 0 0 0 0 0 0 0 0 0 0 0 0 0 0 0 0 0 0 0 0 0 0 0 0 0 0 0 0 0 0 0 0 0 0 0 0 0 0 0
Wind_Speed
6 5 4 4 4 4 5 6 6 6 6 7 8 8 7 7 7 7 8 9 10 9 9 9 10 10 8 8 8 9 8 8 11 10 8 9 11 11 11 10 10 9 11
6 4 4 4 5 5 5 5 5 6 6 7 7 7 8 9 8 8 10 10 10 11 10 10 11 10 10 9 8 10 9 9 9 13 10 9 10 11 11 11 11 11 10
6 5 5 5 5 5 5 5 5 6 7 7 7 8 8 8 9 10 10 11 12 12 11 10 10 10 10 10 11 11 9 9 7 9 11 9 8 9 11 11 12 9 11
6 6 5 5 4 4 4 5 6 7 7 7 7 8 8 9 10 12 12 12 13 12 11 11 10 10 11 11 11 11 10 8 7 8 9 9 8 8 8 9 10 8 9
7 6 5 4 3 4 5 6 7 7 8 7 8 8 8 9 10 13 12 11 11 11 11 9 10 14 18 15 12 11 9 7 7 8 9 8 7 7 8 7 10 11 11
7 6 5 4 4 5 6 7 7 7 7 8 7 8 10 11 21 27 19 9 8 9 8 8 9 11 16 21 25 22 18 12 10 8 8 8 9 8 8 9 9 10 8
7 6 5 5 5 6 7 7 7 7 8 8 7 8 11 15 25 26 25 12 8 7 7 7 8 9 14 10 15 17 16 20 19 12 9 9 10 9 9 11 9 10 11
8 7 6 6 6 6 6 7 8 8 7 7 7 9 10 14 24 25 24 9 7 6 7 7 7 7 10 14 8 8 8 10 14 10 9 10 10 9 10 10 10 11 12
9 8 7 7 6 6 7 8 8 7 7 6 7 8 9 12 22 24 21 5 5 6 6 7 8 6 17 22 11 10 11 9 13 18 19 17 17 16 12 6 6 7 8
11 9 8 7 7 7 8 8 6 6 6 6 6 7 8 9 18 23 21 4 5 6 5 6 12 15 20 21 9 9 12 10 9 11 12 13 10 11 14 6 5 6 6
9 8 8 7 7 7 7 5 6 6 6 5 6 7 7 10 16 21 22 7 6 6 6 6 7 19 20 20 16 10 15 14 10 10 9 8 7 6 6 6 6 7 7
10 9 8 7 6 6 5 5 5 5 5 5 5 6 5 8 13 17 22 19 15 6 7 7 9 19 20 19 15 18 21 17 9 9 8 8 8 7 6 7 8 8 10
11 9 7 7 6 5 5 5 4 3 3 3 4 6 6 6 9 18 20 20 20 10 8 16 18 20 17 12 17 21 16 10 9 10 9 9 9 9 8 7 6 7 9
12 10 8 7 6 5 4 4 3 3 3 3 4 5 6 6 6 7 7 8 12 11 8 12 17 17 14 14 13 11 9 10 10 9 10 9 9 8 7 7 5 5 3
12 10 8 7 6 5 4 4 4 4 4 3 3 3 5 6 10 17 12 8 7 8 8 5 5 6 7 6 7 7 7 9 10 10 10 10 9 9 8 8 6 5 4
12 11 8 7 6 5 4 3 6 6 8 8 7 6 6 11 17 16 17 17 16 16 10 7 8 8 8 8 8 8 8 9 10 10 10 10 10 10 9 8 7 5 5
13 12 9 8 7 6 5 4 3 4 5 6 7 7 8 12 14 14 15 15 14 14 7 6 7 8 8 7 7 6 7 8 8 9 10 10 10 10 9 9 9 7 6
14 14 12 8 7 6 5 4 3 3 2 2 4 5 7 11 12 12 13 11 8 8 5 7 8 8 8 7 7 6 6 7 7 8 9 9 10 10 10 10 9 9 7
14 10 10 8 7 6 6 5 4 4 3 2 2 2 6 9 10 10 10 4 5 6 7 7 8 8 7 7 7 6 6 6 7 7 8 9 9 9 9 10 9 14 10
13 18 14 9 8 7 6 5 4 4 3 2 2 1 1 3 3 4 4 3 4 6 7 8 8 8 8 7 6 6 5 5 6 6 7 8 8 9 10 11 10 10 8
12 15 20 12 9 8 7 6 5 4 3 3 2 2 2 1 2 3 3 3 4 5 7 7 8 8 7 6 6 6 6 5 5 6 7 7 8 8 8 9 9 9 9
13 12 11 10 9 8 8 6 6 5 4 4 3 2 2 0 1 1 2 3 3 4 5 6 7 7 7 7 6 6 5 4 5 5 6 7 7 8 8 8 9 9 9
13 14 12 10 9 12 10 7 6 6 5 4 3 2 2 1 1 1 2 2 3 4 5 6 7 7 7 6 5 5 4 3 3 4 5 6 7 7 7 8 10 10 10
15 15 14 12 11 9 9 8 7 7 6 5 4 3 3 2 2 2 1 2 3 4 5 6 7 9 12 9 6 4 2 2 2 3 4 5 6 6 6 6 8 10 9
15 15 14 13 12 11 10 9 8 8 7 6 5 4 3 2 2 1 0 1 3 4 6 7 6 8 11 12 8 5 4 4 5 3 3 4 5 6 6 7 6 7 8
15 15 14 12 12 11 10 10 9 9 8 6 5 4 4 3 2 2 1 0 2 4 5 5 8 10 11 8 7 7 5 2 3 5 3 3 5 5 5 6 8 7 8
Wind_Direction
198 210 229 246 258 265 267 271 278 285 290 292 295 296 298 298 297 294 291 293 292 293 294 298 298 301 301 304 304 303 302 299 297 301 298 299 299 299 299 295 291 284 278
191 199 228 246 257 262 267 277 286 290 290 291 294 299 300 301 293 288 287 290 285 284 285 289 293 300 300 301 299 299 297 294 295 304 304 301 298 298 297 296 294 284 274
181 197 228 246 255 265 278 288 292 291 291 293 296 296 294 292 290 285 279 277 276 274 274 278 283 290 294 294 293 293 293 296 294 296 301 300 299 301 307 302 297 287 282
180 198 224 242 257 276 291 293 290 288 290 289 288 289 292 292 288 282 275 274 272 268 267 269 275 280 284 286 292 293 295 297 296 296 297 299 300 305 310 315 312 304 293
181 200 220 239 273 287 286 284 283 282 287 283 285 290 292 291 285 281 274 276 272 268 267 265 272 291 304 309 312 310 310 307 304 298 296 299 302 313 312 312 310 309 298
182 198 209 226 251 264 272 275 278 280 281 282 282 286 291 293 299 306 314 305 292 282 276 269 276 292 304 318 318 320 328 322 309 300 297 296 297 298 302 303 305 307 303
183 195 203 218 244 259 273 280 282 284 283 282 281 282 286 290 304 312 322 331 311 300 286 280 292 303 316 299 307 325 325 320 316 309 299 290 288 287 290 292 291 291 284
185 196 202 212 236 253 266 273 277 276 277 278 281 282 285 295 311 319 328 336 309 301 294 288 286 289 303 312 325 322 305 302 306 305 287 281 279 274 267 274 283 288 283
191 197 199 205 225 245 257 264 269 275 282 282 282 286 291 303 316 323 336 320 308 307 305 311 318 305 313 331 341 323 314 309 321 323 320 314 309 305 297 284 282 288 290
194 194 192 198 215 235 250 260 270 281 283 288 294 298 301 304 317 329 339 328 314 315 314 319 328 324 328 338 339 323 320 327 330 323 320 315 310 302 304 290 271 271 276
182 183 189 198 214 234 249 263 276 282 291 301 308 307 306 314 326 331 339 344 335 333 329 323 314 327 337 340 342 329 336 346 333 322 317 312 307 295 285 271 254 248 249
172 179 188 201 219 234 244 260 268 283 300 309 311 309 308 317 328 332 341 347 352 342 330 319 317 335 344 345 343 344 350 348 332 329 328 326 322 314 301 285 267 250 241
170 179 190 202 214 222 234 250 264 280 287 297 309 315 319 320 325 335 340 344 346 346 332 337 342 347 348 341 343 351 352 342 339 339 336 332 325 315 309 301 285 267 254
175 182 190 199 209 219 229 231 235 250 273 292 305 312 316 317 314 317 321 330 338 335 332 335 342 344 347 345 347 346 345 346 348 339 336 332 329 330 330 327 318 315 297
177 183 188 194 196 212 226 226 230 218 226 255 255 277 304 311 317 332 339 334 332 334 345 333 328 333 340 340 342 344 345 348 350 345 344 343 344 346 345 343 339 341 345
180 185 187 187 192 199 213 248 269 254 255 269 276 288 301 312 325 336 338 341 343 352 357 339 339 340 342 344 345 344 345 350 351 349 350 349 349 350 350 349 353 355 356
181 181 182 185 187 190 194 205 243 283 283 278 271 289 307 322 333 337 340 346 351 359 356 337 336 337 337 337 338 339 339 340 343 348 352 352 352 354 356 357 359 359 358
180 183 181 182 182 183 186 192 202 218 259 286 293 302 321 333 338 342 350 355 349 353 342 337 336 334 335 335 335 336 335 338 345 349 352 353 354 356 359 1 360 359 355
180 181 180 175 178 179 178 181 196 211 222 245 272 312 347 343 345 353 0 356 339 340 339 337 334 332 332 332 332 332 333 336 344 348 352 354 355 357 359 359 359 1 4
183 185 177 176 178 177 177 181 192 200 208 228 249 234 338 345 337 342 348 336 338 336 335 333 331 329 330 329 330 332 335 340 347 350 350 353 355 358 1 359 359 359 359
177 183 181 180 181 179 179 182 186 186 192 208 225 229 298 319 306 320 330 332 332 329 328 327 326 326 327 327 330 334 340 345 351 352 352 353 355 358 359 360 358 359 359
173 175 177 177 177 178 179 180 180 182 187 200 218 240 296 280 284 311 318 320 320 318 320 321 321 322 324 329 332 336 344 351 353 353 354 354 356 358 358 2 3 1 3
172 173 175 176 175 184 184 180 180 180 184 191 194 196 196 190 247 286 304 317 322 320 321 321 321 323 328 329 330 334 347 353 352 356 355 357 358 360 360 2 6 6 5
174 173 174 174 175 179 179 179 181 183 182 182 185 187 183 183 221 264 291 322 329 325 324 323 323 326 330 334 333 337 351 9 11 12 8 4 3 360 0 2 4 4 8
175 173 174 173 175 178 179 181 182 183 181 181 181 179 175 180 199 225 236 344 338 328 327 327 327 329 330 330 331 336 348 24 37 44 25 15 10 8 8 8 7 8 12
177 174 172 171 173 176 178 180 181 180 179 179 174 171 173 178 187 199 195 53 338 324 323 324 325 327 326 327 329 339 352 25 42 49 54 33 20 18 19 16 16 19 19